Preview of NWS' New Version of Forecast
This preview is not operational and should not be used for support decisions.

Regional Weather Roundup (RWR)

Issued by Tiyan, GU (GUM)

                            
000
ASGM40 PGUM 200710
RWRGUM
WEATHER ROUNDUP FOR THE MARIANAS
NATIONAL WEATHER SERVICE TIYAN GU
500 PM CHST MON MAY 20 2019

GUZ001>004-200800-
MARIANA ISLANDS-
  
CITY           SKY/WX    TMP DP  RH WIND       PRES   REMARKS
GUAM AIRPORT   MOSUNNY   84  73  70 S12       29.80R HX  91           
ANDERSEN AFB   PTSUNNY   84  73  70 S14       29.80S HX  91           
ROTA AIRPORT   PTSUNNY   82  72  69 S14       29.78F                  
TINIAN AP      PTSUNNY   86  75  70 SW10      29.76F HX  95           
SAIPAN AP      MOSUNNY   86  75  70 S14       29.78S HX  95           

$$